ミュラー第5彗星

173P/Mueller 5 (2021)

English version
Home page
Updated on May 13, 2024

---------------------------------------------------------------------

・ プロフィール

・ 写真集

・ 軌道要素

Epoch 2023 Feb. 25.0 TT = JDT 2460000.5
T 2021 Dec. 16.38101 TT                                 Rudenko
q   4.2165468            (2000.0)            P               Q
n   0.07224052     Peri.   29.14786     -0.61675845     -0.73597707
a   5.7097289      Node   100.38065     +0.65598165     -0.67661023
e   0.2615154      Incl.   16.48924     +0.43508285     -0.02315922
P  13.6
>From 1270 observations 1992 Dec. 18-2023 Apr. 28, mean residual 0".7.

・ 光度変化

        m1 = -14 + 5 logΔ + 45 log r(t + 600)

---------------------------------------------------------------------

軌道要素はM.P.E.C. 2023-K136に掲載されたものです。
光度グラフはComet for Windowsで作成したものです。

---------------------------------------------------------------------

Copyright(C) Seiichi Yoshida (comet@aerith.net). All rights reserved.